Greybull, WY

4:37 AM MST on January 17, 2018 (GMT -0700)
South Big Horn County

Weather History for KGEY - August, 2014

Change the Weather History Date:

Sunday, August 17, 2014

  Actual Average Record
Temperature  
Mean Temperature 74 °F 72 °F  
Max Temperature 91 °F 90 °F 99 °F (2013)
Min Temperature 57 °F 55 °F 41 °F (1987)
Degree Days  
Heating Degree Days 0 0  
Month to date heating degree days 0 0  
Since 1 June heating degree days 56 76  
Since 1 July heating degree days 0 6  
Cooling Degree Days 9 7  
Month to date cooling degree days 175 152  
Year to date cooling degree days 610 555  
Since 1 June cooling degree days 568 535  
Growing Degree Days 23 (Base 50)    
Moisture  
Dew Point 46 °F    
Average Humidity 49    
Maximum Humidity 80    
Minimum Humidity 17    
Precipitation  
Precipitation T in 0.01 in 0.02 in (2003)
Month to date precipitation 0.30 0.16  
Year to date precipitation 3.15 5.19  
Sea Level Pressure  
Sea Level Pressure 29.93 in    
Wind  
Wind Speed 6 mph (North)    
Max Wind Speed 20 mph    
Max Gust Speed 24 mph    
Visibility 10 miles    
Events Rain    
T = Trace of Precipitation, MM = Missing Value Source: NWS Daily Summary

Daily Weather History Graph

Daily Weather History Graph

Search for Another Location

Airport or City:

Trip Planner

Search our weather history database for the weather conditions in past years. The results will help you decide how hot, cold, wet, or windy it might be!

Date:

Astronomy

Aug. 17, 2014 Rise Set
Actual Time 6:17 AM MDT 8:14 PM MDT
Civil Twilight 5:46 AM MDT 8:45 PM MDT
Nautical Twilight 5:07 AM MDT 9:24 PM MDT
Astronomical Twilight 4:25 AM MDT 10:05 PM MDT
Moon No Moon Rise 2:25 PM MDT
Length of Visible Light 14h 59m
Length of Day
13h 56m
Waning Gibbous, 48% of the Moon is Illuminated
Aug 17
Waning Gibbous
Aug 25
New
Sep 2
First Quarter
Sep 8
Full
Sep 15
Last Quarter

Hourly Weather History & Observations

Time (MDT) Temp. Dew Point Humidity Pressure Visibility Wind Dir Wind Speed Gust Speed Precip Events Conditions
1:53 AM 66.9 °F 51.1 °F 57% 29.92 in 10.0 mi West 9.2 mph - N/A   Clear
2:53 AM 66.0 °F 48.9 °F 54% 29.91 in 10.0 mi North 9.2 mph - N/A   Clear
3:53 AM 63.0 °F 48.9 °F 60% 29.92 in 10.0 mi Calm Calm - N/A   Clear
4:53 AM 61.0 °F 51.1 °F 70% 29.93 in 10.0 mi Calm Calm - N/A   Clear
5:53 AM 57.0 °F 51.1 °F 81% 29.95 in 10.0 mi SSE 4.6 mph - N/A   Clear
6:53 AM 57.9 °F 50.0 °F 75% 29.99 in 10.0 mi ESE 6.9 mph - N/A   Clear
7:53 AM 61.0 °F 51.1 °F 70% 29.99 in 10.0 mi ESE 3.5 mph - N/A   Clear
8:53 AM 66.9 °F 50.0 °F 54% 29.99 in 10.0 mi Variable 3.5 mph - N/A   Clear
9:53 AM 73.0 °F 51.1 °F 46% 29.99 in 10.0 mi Variable 3.5 mph - N/A   Clear
10:53 AM 77.0 °F 50.0 °F 39% 29.98 in 10.0 mi Variable 3.5 mph - N/A   Clear
11:53 AM 79.0 °F 50.0 °F 36% 29.96 in 10.0 mi ESE 4.6 mph - N/A   Clear
12:53 PM 84.0 °F 45.0 °F 25% 29.94 in 10.0 mi Variable 5.8 mph - N/A   Clear
1:53 PM 86.0 °F 42.1 °F 21% 29.92 in 10.0 mi North - - N/A   Clear
2:53 PM 87.1 °F 39.9 °F 19% 29.90 in 10.0 mi Variable 3.5 mph - N/A   Clear
3:53 PM 89.1 °F 39.9 °F 18% 29.89 in 10.0 mi NNW 8.1 mph - N/A   Clear
4:53 PM 89.1 °F 39.0 °F 17% 29.87 in 10.0 mi NNE 11.5 mph - N/A   Clear
5:53 PM 89.1 °F 39.0 °F 17% 29.87 in 10.0 mi Calm Calm - N/A   Partly Cloudy
6:53 PM 87.1 °F 41.0 °F 20% 29.86 in 10.0 mi NNW 12.7 mph 19.6 mph N/A   Clear
7:53 PM 84.0 °F 41.0 °F 22% 29.88 in 10.0 mi NNW 11.5 mph - N/A   Clear
8:53 PM 80.1 °F 41.0 °F 25% 29.90 in 10.0 mi NW 8.1 mph - N/A   Clear
9:53 PM 79.0 °F 41.0 °F 26% 29.91 in 10.0 mi North 9.2 mph - 0.00 in Rain Light Rain
10:53 PM 77.0 °F 41.0 °F 28% 29.91 in 10.0 mi NNW 9.2 mph - 0.00 in   Unknown
11:53 PM 70.0 °F 44.1 °F 39% 29.94 in 10.0 mi Calm Calm - N/A   Clear